STARLINK-32783, 62606

Orbit data source: Space-Track

STARLINK-32783, 62606 is a payload satellite owned by SpaceX/Seattle (US) in LEO that was launched on Mon, 13 Jan 2025 UTC via an FALCON 9 launch vehicle from the Air Force Eastern Test Range (AFETR). Payloads include a variety of satellites, spacecraft, and rockets equipped with specific instruments for various scientific and technological missions. These include communications satellites like Starlink; space stations such as the ISS; scientific satellites like the Hubble; Earth observation satellites from companies like Planet Labs, Umbra, and HawkEye 360; GPS; miniature CubeSats for education and research; and military/defense satellites.

Loading next visibility...
STARLINK-32783 details
Identifier
62606, 2025-008V
Orbit
LEO
Last TLE update14 hours ago
Origin
Flag of USSpaceX/Seattle (US)
ManufacturerSpaceX/Seattle
MissionOperational spacecraft
Bus & MotorSTARLINK V2M, Unknown motor
Mass730 kg wet, ~700 kg dry
Launch date (UTC)
2025-01-13 (3 weeks ago)
Launch vehicle
FALCON 9
Launch site
Air Force Eastern Test Range (AFETR)
Object type
Payload
Rocket body
Debris
Shape & HBRUnknown
Radar Cross SectionLarge (>1 m²)

Expand to show TLE details & history

TLE from 14 hours ago
0 STARLINK-32783
1 62606U 25008V   25035.58335648 -.00086318  00000-0 -14793-2 0  9996
2 62606  43.0005   9.4415 0001005 275.7061  26.5583 15.50626902  4684
Epoch: 2025-02-04T14:00Z
Definitive object data (Epoch: 2025-02-04T14:00:01.999Z)
Latitude-35.39282°
Longitude-24.80969°
Altitude424.43 km
Speed7.657 km/s
True Right ascension21h 20m 44s
True Declination-35° 13' 22"
Sunlit
Object was in daylight at TLE epoch
Visualization TLE readout
Latitude0.58281°
Longitude21.61496°
Altitude414.784 km
Speed7.664 km/s
Apparent Right ascension21h 58m 17s
Apparent Declination-26° 14' 51"
Sunlit
Object is in daylight
Visualization observer readout
Local Sidereal Time06:11:45
Azimuth268.266° W
Elevation-41.462°
Doppler factor1
Orbital elements
Apogee altitude417.542 km
Perigee altitude416.176 km
Semi-major axis6,794.996 km
Eccentricity0.0001005
Inclination43.0005°
RAAN9.4415°
Arg. of periapsis275.7061°
True anomaly26.56345°
Mean anomaly26.5583°
Eccentric anomaly26.56087°
Mean motion3.87489 °/min
BSTAR-0.0014793
Orbital period92.91 mins
Loading maneuver chart data...
Loading historical data...
Loading historical data...
Loading historical data...
Loading historical data...
Loading historical data...
Loading historical data...
Loading historical data...

STARLINK-32783 Visibility forecast

Observer location: undefined°, undefined

Span
Click to sort rows by Start time (UTC) header in descending order
Start Az.
Max El. time (UTC)
Max El. Az.
Max El.
End time (UTC)
End Az.
5 mins2025-02-05 04:30:57.936Z289.911° WNW2025-02-05 04:33:57.936Z30.989° NE34.614°2025-02-05 04:35:57.936Z73.799° E
5 mins2025-02-05 06:08:57.936Z286.88° WNW2025-02-05 06:10:57.936Z253.04° W44.678°2025-02-05 06:13:57.936Z111.626° ESE
5 mins2025-02-06 02:03:57.936Z248.199° W2025-02-06 02:05:57.936Z234.675° WSW43.694°2025-02-06 02:08:57.936Z72.655° E
5 mins2025-02-06 03:41:57.936Z291.81° WNW2025-02-06 03:43:57.936Z6.784° NNE36.304°2025-02-06 03:46:57.936Z73.598° E
|